TIMESTAMP,CO2_1_1_1,H2O_1_1_1,TAU_1_1_1,TAU_SSITC_TEST_1_1_1,H_1_1_1,H_SSITC_TEST_1_1_1,LE_1_1_1,LE_SSITC_TEST_1_1_1,FC_1_1_1,FC_SSITC_TEST_1_1_1,WD_0_0_1,WS_0_0_1,WS_MAX_0_0_1,U_SIGMA_0_0_1,V_SIGMA_0_0_1,W_SIGMA_0_0_1,USTAR_0_0_1,MO_LENGTH_0_0_1,ZL_0_0_1,FETCH_MAX_0_0_1,FETCH_70_0_0_1,FETCH_80_0_0_1,FETCH_90_0_0_1,PA_0_0_1,RH_0_0_1,TA_0_0_1,VPD_0_0_1,T_SONIC_0_0_1,T_SONIC_SIGMA_0_0_1
[yyyymmddHHMMSS],[mmolCO2 mol-1],[mmolH2O mol-1],[kg m-1 s-2],[#],[W m-2],[#],[W m-2],[#],[umolCO2 m-2 s-1],[#],[Decimal degrees],[m s-1],[m s-1],[m s-1],[m s-1],[m s-1],[m s-1],[m],[#],[m],[m],[m],[m],[kPa],[%],[deg C],[hPa],[deg C],[deg C]
20190801003000,389.92339271677906,11.625396909059157,2.88453201769005713E-002,0,-1.0206950535007069,2,30.437412763619587,0,-2.1804871391712317,0,230.12262473035290,0.94113606453910403,2.2906586244491618,0.34231178285807662,0.48344738194452003,0.18026482668360172,0.16116636499939269,343.75490169080035,5.52719391244930192E-002,60.136891344650977,407.00000000000000,686.00000000000000,1588.0000000000000,94.507367709201390,41.620689655172413,22.027586206896558,15.414861379638952,22.436570969475724,9.05199480448819344E-002
20190801010000,390.51088096823895,12.099394754949207,6.47262162489467465E-003,0,-5.6223747580084575,1,12.771350096145150,0,-5.60333128038067105E-002,2,221.09428395901736,1.3589362108780807,2.6919908403200785,0.32988973424645984,0.41884125677535028,0.11432252241403401,7.62890619700892642E-002,6.6198116925532346,2.8701722771621281,439.73405771351071,3677.0000000000000,6557.0000000000000,-9999.,94.515737740668413,44.539999999999999,21.573333333333323,14.243407733559735,22.089643948872833,0.24888913788465611
20190801013000,391.06708619760661,12.172881333879737,8.68865260733824377E-003,1,-5.1383571494845430,1,9.2789957876928106,1,0.22472684406683180,2,220.37829824894104,1.7417223714902756,2.7510393276731491,0.24154922691611902,0.33382439305699246,9.64679185380218351E-002,8.82727321675993853E-002,11.221994153862520,1.6931037157473794,539.56791939985271,5206.0000000000000,9668.0000000000000,-9999.,94.527510155425261,46.916666666666664,20.826666666666654,13.022642665089933,21.427504353544975,0.18840245010535400
20190801020000,395.97175488993889,13.558545950368703,3.53050404461364362E-002,1,46.892696343347481,1,-36.865334420742450,1,-2.6353442820833672,1,290.25615767878014,1.0557784426764358,3.1702323383997966,0.42170396618690803,1.0328288578400489,0.17748287671962562,0.17745345614009722,-9.9933358401255443,-1.9012670347483596,38.332162629329694,120.00000000000000,165.00000000000000,270.00000000000000,94.546741990146671,58.046666666666667,19.133333333333326,9.2675588351283302,19.892843470524781,1.3120350616485836
20190801023000,394.65709340758713,14.100134791923645,1.90660795149769774E-002,0,-8.5105426139567317,0,1.9495602774722642,0,1.3042057886159875,0,346.63635647086267,1.3788427592682426,2.9517132614383574,0.41286360932294713,0.33198320791779878,0.17402116845938709,0.13000792154097313,21.660616903263797,0.87716799963980252,163.86117906674045,1485.0000000000000,2710.0000000000000,7239.0000000000000,94.587053146398759,67.260000000000005,17.416666666666686,6.4937154016863659,18.321345092834463,0.24405627476788294
20190801030000,394.61438305111119,14.006890556716206,1.52533693660983505E-002,0,-8.4701981809220470,0,3.7555591713492786,0,1.1384835445716424,0,347.03671550382512,1.5647407553016526,2.8209931558945964,0.35442445099079994,0.27870091424383148,0.15165594407371755,0.11618246282522844,15.534327604379527,1.2230976765703983,259.47765413207657,2388.0000000000000,4376.0000000000000,-9999.,94.604335416015630,68.743333333333325,16.969999999999970,6.0267243473334817,17.861926027086042,0.25895288825926494
20190801033000,394.52379530159953,13.627026508219217,7.61034276965780448E-003,1,-1.1858907652489197,1,-2.4337046635972062,2,-5.56852065895357962E-003,2,352.54094957769780,1.0633249294444920,2.6029824244830131,0.41939055133635772,0.16182231355769150,7.98259157801472219E-002,8.20243319648232272E-002,39.042084899118763,0.48665433849381484,218.94694544053564,2163.0000000000000,4044.0000000000000,-9999.,94.609138013454867,67.879999999999995,16.736666666666679,6.1021709294297963,17.588742714775947,0.13620363722031517
20190801040000,394.42454908793115,12.849510601128262,1.60611547340117435E-003,1,-1.4955145930465592,1,2.5377171960079816,1,0.18758539476708971,1,356.91706903949120,0.93527781709357094,2.0896826282917091,0.27099158712077070,0.14432444410873341,7.53349591439582550E-002,3.76878711251858525E-002,3.0024264400132172,6.3282149886464358,772.50987842309110,5887.0000000000000,-9999.,-9999.,94.598481417258768,63.393333333333331,16.886666666666656,7.0210784777963049,17.620330242655768,0.14117414788641777
20190801043000,393.78372104851189,12.233481461298435,2.59174089333852158E-003,1,-0.71911028972098512,0,0.30141621896531312,1,-3.77517531802763276E-002,2,3.3222128597647611,1.0099560478648963,1.9529558942500855,0.27403247034155409,0.21891435470562931,7.38568648447912729E-002,4.78801133184730207E-002,12.801769725481968,1.4841697989755613,597.10365006028496,6021.0000000000000,-9999.,-9999.,94.594277799913201,59.906666666666666,17.003333333333330,7.7469084345052694,17.731846615261475,0.20629843642123313
20190801050000,392.38827506061580,11.857989653090435,7.44466014592081761E-003,1,-7.74488205965463555E-002,2,3.1548975496172678,2,-0.13277164413251008,2,43.640166091095125,1.1416856111437905,1.5304463437192490,0.11552469638272517,0.40420561085914425,3.10949890862911235E-002,8.11945525958616271E-002,579.58562305084843,3.27820415903123316E-002,221.97455359945246,1457.0000000000000,2429.0000000000000,5541.0000000000000,94.586976124782993,56.803333333333335,17.350000000000023,8.5316946057049456,18.196415865580320,0.14952585963934661
20190801053000,390.74464760088711,12.678547770154177,1.13669587865132798E-002,1,7.2038517764733205,1,3.8085245261409706,2,-0.53103198573884824,1,107.30377371557613,1.2875915158534581,1.5617330494255417,7.82619728824781868E-002,0.45360965112296425,3.39930821612057649E-002,0.10043816763648325,-11.796334434396348,-1.6106698318588561,113.06950074511788,337.00000000000000,458.00000000000000,735.00000000000000,94.586444185980909,58.700000000000003,17.889999999999986,8.4396967133951826,18.745115472581574,0.33844039747782434
20190801060000,395.90064724491572,13.141509287996763,1.21000753285023625E-002,1,29.667394636834512,2,-40.010425028997254,2,-10.183768066922466,2,134.11480707130153,1.9509096747203358,3.0351225761125566,0.37254914890663354,0.24435680610903815,0.10105894510763269,0.10361361406096677,-3.1449666456931658,-6.0413995251807542,101.80097681845878,289.00000000000000,388.00000000000000,612.00000000000000,94.585366396566883,61.329999999999998,17.763333333333321,7.8394732674910594,18.554817146447476,1.1920843363104374
20190801063000,412.20426708193736,14.653523187299964,2.93386992415013807E-002,0,-33.927366386178960,0,66.731758823858513,0,14.110050392006952,0,137.85638737660324,2.5308078824403539,3.6956870599500893,0.39703689960700017,0.49516262134976802,0.23087595012540527,0.16061459376246914,10.248033830443148,1.8540141762176829,353.06393590543701,3138.0000000000000,5694.0000000000000,-9999.,94.616207898003466,81.153333333333336,15.079999999999984,3.2207147311428024,16.209848467508948,0.71681602175497228
20190801070000,400.43348173501334,13.716405016447249,4.76020608017671543E-002,0,-30.867743751359590,0,13.251778800940869,2,4.6414619732853328,1,148.12249590401106,2.6787244661233949,4.2243193134120913,0.47625782420561247,0.70485398881709216,0.25504952096567163,0.20481773828926936,23.353798315019045,0.81357215403290195,105.06289001029668,192.08847102896976,229.88083974162359,287.78353270371792,94.612643183226965,72.423333333333332,15.823333333333323,4.9427564916153894,16.899254734392457,0.69759537697580376
20190801073000,399.26774836997271,12.968972411847171,6.91620853488602583E-002,0,-66.387796314071082,0,33.493670505048620,1,9.0488102321275541,0,179.25375704842307,2.6164568384266453,4.3577624623143096,0.53365776055270264,0.53244670446945563,0.32066720383952757,0.24697136199674072,19.034485368419535,0.99818826893650880,101.60814935032330,185.77210326951766,222.32176075639507,278.32046280715525,94.607523310546881,67.273333333333341,16.100000000000023,5.9704428426644904,16.925912738376155,0.66479330139177018
20190801080000,402.48173377624090,12.757262209449278,2.08732786735269446E-002,0,-19.953144561131918,0,9.9111016462628676,0,1.8691789522080300,0,197.60519626378556,2.8155971672388618,3.8999462396700793,0.38088336124522576,0.34310092872365350,0.18127255716175900,0.13560576395035956,10.484675819344641,1.8121685712918514,596.57116850799650,5761.0000000000000,-9999.,-9999.,94.625842747395836,67.153333333333336,15.873333333333335,5.9061904901301432,16.716069268120691,0.43137055681530773
20190801083000,406.44840092423772,12.668636543908651,3.19046127014031219E-002,0,-30.670567846171064,0,21.365905325455589,0,4.4010504739241219,0,205.10463706716962,2.9980078077995485,4.5822147575065086,0.40870267335109373,0.31824985434340541,0.22998859235651556,0.16755459065395245,12.867535410297164,1.4765842404284639,445.01898907860306,4287.0000000000000,7959.0000000000000,-9999.,94.633639402777774,68.000000000000000,15.569999999999993,5.6432977368028654,16.379804470486079,0.52801969921014791
20190801090000,411.59839019243390,12.674332153218266,3.33548458174596982E-002,0,-29.773875622665905,0,15.468765533189423,0,3.7826618308803215,0,201.11688667638194,2.9685813714081104,4.6714334469638814,0.40141706854963149,0.34859656438512515,0.25139134467436763,0.17113404156586842,14.123795231921363,1.3452474839806419,416.48258547159776,4045.0000000000000,7526.0000000000000,-9999.,94.644057911675347,70.696666666666673,14.973333333333358,4.9733955820790907,15.751575529310571,0.49206069964529625
20190801093000,419.15785501749383,12.988802627938835,4.48325472090495628E-002,0,-35.108895245087652,0,8.0322572936383914,0,3.3219986347462260,0,186.98071299041501,2.4608515465985450,4.0285225804730382,0.48767131828425708,0.52410401917405602,0.25746652707034812,0.19811559161215131,18.584748809828103,1.0223436536280921,221.25124363200456,2049.0000000000000,3760.0000000000000,-9999.,94.651406089391884,76.563333333333333,14.120000000000005,3.7643298968581123,14.932696420614661,0.39693089486859834
20190801100000,422.88603398497537,13.048754222906835,3.16169158425626123E-002,0,-28.571023563571103,0,8.0141181964772663,1,4.6779776391998986,1,170.38204089637554,2.3110377402480800,3.6782817734185613,0.39167791285946219,0.38457741870612960,0.22179284805586597,0.16624971264199584,13.495561369443056,1.4078702974905670,276.64405602530559,2506.0000000000000,4571.0000000000000,-9999.,94.656007832035598,79.030000000000001,13.703333333333319,3.2782356049734722,14.559944160972009,0.44859290653777817
20190801103000,425.43265995699784,13.224709980725869,4.57372580353569008E-002,0,-39.738146119517815,0,13.476768014753027,0,9.1495696060797922,0,180.80228699364696,2.5801925383575659,4.1995395213053550,0.47095373043788819,0.37776586596762707,0.25903931032011396,0.19982977073728625,16.853780993595535,1.1273434730889189,238.91576801030115,2203.0000000000000,4038.0000000000000,-9999.,94.680311793619794,81.750000000000000,13.393333333333317,2.7960016468084747,14.235702467176679,0.41694520505821087
20190801110000,424.60372060889222,13.099058883972784,5.74242167046607258E-002,0,-29.563334266184786,0,4.1077060681316366,1,4.4651178557712283,0,184.23693693767763,2.6823700144318181,4.1730757928939681,0.54581064696131665,0.41961782896610061,0.29273424675076221,0.22378491936950945,31.821924566028542,0.59707262395698801,101.00450078730404,184.66844117248377,221.00095910547824,276.66697587223291,94.703012914496540,82.253333333333330,13.156666666666695,2.6772174986396911,13.958027269151444,0.37410259646701749
20190801113000,427.46607248658393,13.177664054619191,6.47332130711625736E-002,1,-26.170225521395327,0,5.0511196283449733,0,2.4174602731204913,0,183.68333219798959,2.3016574334490425,3.8909069966557541,0.45735840338030803,0.43331182353866027,0.29518600210087897,0.23754392817663006,42.998916128162605,0.44187160307410039,105.23820688058038,192.40900618229628,230.26443845433499,288.26375277255340,94.715441266903866,83.336666666666673,13.050000000000011,2.4963268876893951,13.844155711675171,0.26389279074931871
20190801120000,427.82338527579680,13.288552043555244,5.46033446154593829E-002,0,-19.953592785719589,0,7.7936070662773895,0,-0.24616708913113247,2,190.86022634506421,2.4436498388150123,4.1093799141031626,0.46840446613079495,0.45194553673075927,0.28780011814817680,0.21823938754203220,43.743721534476059,0.43434804661110948,100.35260090154367,183.47656026850902,219.57458207405091,274.88132108894183,94.744101396230420,82.629999999999995,13.313333333333333,2.6473318681739944,14.118031304082422,0.21072578333753172
20190801123000,422.30141163201296,13.215235471792099,0.10032036871605524,0,-8.3239727695093322,2,57.179238670456748,0,0.36819491765674389,2,201.87397889413242,2.3862727012025693,4.8552329160255105,0.58404364359839389,0.55803319765246240,0.40496476612768184,0.29633024127273538,262.51829271942449,7.23759087535545825E-002,97.530822824217168,178.31744998319715,213.40044471768516,267.15203376856317,94.750827398220480,76.859999999999999,14.343333333333305,3.7708336218320349,15.148636567857579,0.40761854386261975
20190801130000,413.44851021970481,13.108688349443419,8.79212760625159295E-002,0,8.6645769488889286,1,57.349579185814342,0,-2.3756377196596041,0,200.04834192431866,2.1092134389770716,4.4169013891173057,0.62039149752709954,0.63254070896737957,0.41768356504814846,0.27806135705947288,-208.36300418599987,-9.11870131371269182E-002,90.425204696983855,165.32611382594686,197.85313337100879,247.68864487360352,94.744822098524310,69.950000000000003,15.680000000000007,5.3368864167953030,16.417052158779654,0.28659903371794687
20190801133000,410.00308617335810,13.250381692776179,0.10839735298939591,0,21.670607570249608,1,71.235648680166520,0,-7.5535809023601868,1,202.10141642686489,2.4017387589091670,5.0150237755064717,0.66761449142810958,0.62909370610926829,0.45859309851768837,0.30896261886716969,-114.29975758242543,-0.16622957390175089,91.293033523336817,166.91278170032825,199.75196957601375,250.06576247816872,94.756505736762151,68.826666666666668,16.103333333333353,5.6882727430838802,16.858353232489662,0.48190537651600907
20190801140000,404.75861962269471,13.479974317725580,0.31416774626944216,1,70.777935607750834,0,159.54489650042026,0,-13.225643595045016,0,210.51080948109905,2.0248377083266016,5.4239038920105047,0.87037549252991298,0.68392635916662592,0.60278750947505200,0.52685282755341811,-173.54442862141244,-0.10948205108588385,112.42812200512078,205.55446413577229,245.99619422783755,307.95804420292757,94.761549917534722,65.959999999999994,17.043333333333351,6.5939644880354313,17.806240926106739,0.32048621070172112
20190801143000,401.57796350705519,13.999843928195732,0.16514915963428162,1,51.245125666523670,0,88.380567585931018,0,-7.1161573184829994,0,204.49438026191055,1.6972541089522108,5.0172326732698478,0.83211184699592933,0.65825713333562863,0.49973555452796586,0.38283198213017966,-91.962093042116422,-0.20660686780256793,101.17408142738300,184.97848866751926,221.37200676980055,277.13148351784690,94.745223220269096,63.579999999999998,18.223333333333358,7.6000493901115673,19.049740807427440,0.47852023383921227
20190801150000,397.62140371623076,14.055083810576791,0.22394056317032751,1,107.68431335398012,0,152.83996385164056,0,-15.261130349186919,0,195.59393819576246,1.5554404408663998,4.3712955353880041,0.81031845395394919,0.83239115080364301,0.54853272828898969,0.44680045516411987,-69.567219903952960,-0.27311713801747567,106.26341025030409,194.28340491399572,232.50761500806328,291.07194363280797,94.733990308376747,58.943333333333335,19.496666666666670,9.2769399225295626,20.257748975965796,0.42103019820943394
20190801153000,394.95082667208544,14.141166600762968,0.17242145639926243,1,118.70312319373690,0,192.52727020887670,0,-11.606143612961727,0,189.64375875333570,2.1980379540705597,5.0882170401050004,0.81216423459000264,0.99265613228567173,0.60622804606015168,0.39244878809337824,-42.762643671145483,-0.44431303513679715,88.424471780526559,161.66813595362723,193.47546811842687,242.20832745002735,94.718652646735052,57.353333333333332,20.033333333333360,9.9623927170793376,20.768626829576078,0.39827618889546179
20190801160000,392.84081836345030,14.169002971274585,0.22668062374457820,1,168.39591409190027,0,262.63600633087913,0,-14.441073354797899,0,188.64339621294320,1.7734691384318952,5.1125638423933841,1.0051822505894963,0.94063854549407855,0.64250932104289882,0.45057153186592425,-45.611714223229065,-0.41655965629819958,94.267578801935358,172.35119915216532,206.26036627466442,258.21350283043165,94.697249235898866,55.023333333333333,20.733333333333348,10.970678890325747,21.433588769164999,0.44825759737905890
20190801163000,390.24520715776720,13.368590663745833,0.36812255189644000,0,155.00120623831259,0,188.82140852698566,0,-15.077767839092211,0,188.02858549384339,2.3008989498635630,5.8940870259903466,1.0943770788955423,1.1222023616400354,0.69661897005687112,0.57468492372037194,-102.78907219562448,-0.18484455199517591,107.35011290911099,196.27024396033141,234.88535390075413,294.04859057369566,94.675712204644100,50.229999999999997,21.266666666666652,12.544262932017181,21.862455308702238,0.46897130877753268
20190801170000,389.53908671809216,13.079864811829248,0.32023528055409378,1,195.32688866540397,0,284.92636365830572,0,-16.961926814815605,0,196.94766774142172,2.1763777597691463,6.9955466333246070,1.2156672384110550,1.2804767381381723,0.68306550562710733,0.53632329365790243,-66.288329918057627,-0.28662662075642675,103.18732264036601,188.65933569520442,225.77704056049129,282.64606310346636,94.658687928168405,48.153333333333336,21.596666666666692,13.334437467518656,22.145385246276817,0.53093484693165061
20190801173000,389.81478778499746,12.875406827974723,0.27025137813853400,0,170.45960524973725,0,266.48701014507742,0,-13.251414689204132,0,208.99301194475706,2.3483900181412394,7.6136496344225018,1.2329095884809393,1.4211957150223749,0.68482914517913496,0.49299771510579599,-58.987962764465401,-0.32209961337138565,96.264251216070832,176.00175313120982,210.62914702308487,263.68269790907124,94.641117200305246,46.436666666666667,21.930000000000007,14.059305131008694,22.407902455131193,0.49510000509181284
20190801180000,389.08712365772811,13.293015418267585,0.26481960157551876,0,130.83380085747615,0,175.74087730693529,0,-12.580107824519349,0,224.15427144710290,1.8469271396417697,6.3196872042665282,1.2210088078073191,1.2082182611324119,0.68638138999132448,0.48845808868727619,-74.752918945070817,-0.25417067678603145,95.381543157437022,174.38788127473128,208.69775459950361,261.26482378210994,94.635151445529516,46.596666666666664,22.396666666666647,14.421352246125533,22.921533192104789,0.48874529691474922
20190801183000,389.51334840263593,13.401594811095848,0.39276021893334145,0,180.55865397043982,0,242.32443182598720,0,-14.392801555924795,0,254.62327718315208,2.6864594592247939,5.7458746560880236,1.0670696260324091,0.94060110586834722,0.71169983030502837,0.59513246476080983,-97.957052740979890,-0.19396255265294884,108.51963478256073,198.40850294486802,237.44430378627959,297.25209217433365,94.615871537326399,46.409999999999997,22.593333333333305,14.645666659672012,23.068611710442440,0.48327146781438068
20190801190000,389.48139548955277,13.303640966821275,0.52630722297023924,0,236.49264525697467,0,347.80172954652505,0,-20.003282987881278,0,250.44725577609447,2.6289341574950815,8.1248488922039499,1.2950730427787687,1.0706562550281020,0.73726833420482163,0.68941651320004360,-116.24610124965577,-0.16344634181919510,118.66968240454035,216.96602718950106,259.65292064927917,325.05464511646187,94.597846489366319,45.013333333333335,22.973333333333358,15.377454957209082,23.479695801628964,0.54223163578115519
20190801193000,389.49110135932631,13.321068888692759,0.47005638939704286,0,228.79238159323688,0,344.58964861655357,0,-17.546690647616899,0,241.00599707894060,2.2051700536982666,6.3801260035116760,1.2026939838325286,1.3220494256972064,0.73775849660813997,0.65221357933831925,-101.72086796191648,-0.18678566532791929,113.45807043320555,207.43753834751448,248.24975311542846,310.77923251316565,94.574612092683850,43.606666666666669,23.516666666666652,16.296899899624044,24.027392516062264,0.54552425002921456
20190801200000,388.75509177098962,13.590070152665984,0.35801792780706743,0,142.25401265514881,0,206.74545729785811,0,-12.746642425536608,0,244.72072696295322,2.0776000859720050,6.2764644548524133,1.2860841435314250,1.1242601408597424,0.64369841919277115,0.56931686072366983,-108.82365745391583,-0.17459438916621633,113.49903851354233,207.51244106446919,248.33939253720243,310.89145043222589,94.581536804094085,44.196666666666665,23.626666666666665,16.233612311601419,24.060398649476554,0.43752434572895577
20190801203000,386.73547701792410,13.860670531212858,0.17499381759367980,1,103.87133964430380,0,241.77204086619838,0,-18.790100115212212,0,240.83579193832662,1.9967307789931004,5.3098300373418628,0.90105837186905025,0.92518283196587803,0.57789794637614489,0.39805739639737964,-50.944020886931689,-0.37295838980142099,92.924565125071894,169.89574181861570,203.32181097895915,254.53478030186517,94.583401693359377,45.023333333333333,23.646666666666647,16.012399177037182,24.166379543728340,0.35626383089546149
20190801210000,385.51074448927682,14.523059396499882,0.14922567794294164,0,91.565842577736817,0,211.89548592939113,0,-13.239117994729840,0,234.60025357633975,1.3597199150416246,6.0420284219305049,1.1381308755879311,1.0325479007503355,0.55706729456270676,0.36776139251181877,-45.570926720960621,-0.41693249111084757,89.821784406917132,164.22286908467410,196.53283118834392,246.03578321366356,94.559291334418404,46.776666666666664,23.783333333333360,15.629734531911312,24.308210998535174,0.32915385192502061
20190801213000,383.43294319118013,15.205771829874351,0.20564747553722262,1,55.390188670859359,0,188.66317676696295,0,-15.221461302052766,0,240.96980244127747,1.4678949154144956,4.6178538747548030,0.76913091259258948,0.88596046939366979,0.53155013613150848,0.43189346377812843,-122.02771320668744,-0.15570233597525737,106.05247738147204,193.89775235618265,232.04608739339869,290.49416582610701,94.555190774956600,48.553333333333335,23.926666666666677,15.238720872812285,24.619733725653759,0.27756658886746843
20190801220000,382.48048148945475,15.783907827008816,0.18517784599029616,0,44.331820725068134,0,178.48801265811636,0,-12.958701179525111,0,283.54936683982385,2.1807032409004341,5.2049206411418734,1.0604180943642649,0.68197938391593671,0.46314561354760958,0.40996693781048277,-130.40965748595025,-0.14569473125137972,113.57426184152953,207.64997329927974,248.50398349604774,311.09749878162654,94.547114963738395,50.093333333333334,24.026666666666642,14.871607975127015,24.717321276894154,0.24532849014041147
20190801223000,383.91064261387731,15.372587163970341,0.15222605003006648,1,52.088035860090464,0,180.45377493124673,0,-10.313708656944213,0,280.54684278559938,1.6849878301877472,4.5777230730301284,0.87470140479247593,0.75924893047333530,0.42884412471582906,0.37177455538788179,-82.746309273634608,-0.22961749190732733,111.69636980862929,204.21658774019281,244.39509788072817,305.95366156935080,94.516210729166659,48.596666666666664,24.086666666666645,15.372855557922550,24.647899470859102,0.25094512569864513
20190801230000,385.75596758993805,14.657594539670818,0.11554744058401373,0,40.867486971355909,0,147.84394272509914,0,-9.0733952825255457,0,240.71087159127717,1.7277784390755877,4.0632150840487791,0.84217901123287309,0.61712869300024209,0.42254001832292382,0.32377902246779217,-69.641896807225123,-0.27282427491304073,101.19512434726306,185.01696183635508,221.41804932671261,277.18912333549224,94.488818676649302,46.976666666666667,23.853333333333353,15.636675796314808,24.435831699795244,0.17828680635797461